Location: Kresge Environmental Education Center
(43.1138°N, 83.2433°W)
Time: 19:15:52
(UTC-04:00)

Daily predictions for brighter satellites

Satellite Brightness Start Highest point End
(mag) Time Altitude Azimuth Time Altitude Azimuth Time Altitude Azimuth
Meteor 1-23 Rocket 4.2 20:44:40 10° N 20:50:18 74° ENE 20:55:59 10° SSE
H-2A R/B 3.0 20:47:09 10° SSE 20:50:54 52° ENE 20:54:44 10° N
CZ-4B DEB 2.9 20:49:02 10° SSE 20:52:19 86° WSW 20:55:37 10° NNW
Cosmos 2369 4.4 20:47:44 10° SSE 20:52:38 31° ESE 20:57:34 10° NE
ATLAS CENTAUR R/B 3.1 20:49:03 10° SW 20:53:55 47° NW 20:58:41 10° NNE
Cosmos 1544 Rocket 3.6 20:51:39 10° S 20:55:56 57° E 21:00:16 10° NNE
Cosmos 1939 Rocket 4.5 20:53:07 10° ESE 20:56:09 20° ENE 20:59:13 10° NNE
Cosmos 968 Rocket 4.3 20:57:30 10° NNW 21:02:30 52° WSW 21:07:26 10° S
CZ-2D R/B 3.3 21:01:59 10° SSE 21:05:50 89° E 21:09:44 10° NNW
NOSS 2-1 (D) 3.4 21:05:18 10° SW 21:09:11 87° NW 21:13:38 10° NE
NOSS 2-1 (C) 3.4 21:06:18 10° SW 21:10:11 88° NW 21:14:40 10° NE
ERS-1 Rocket 3.5 21:07:55 10° SE 21:12:37 41° ENE 21:17:18 10° N
Cosmos 1821 Rocket 4.0 21:07:51 10° S 21:13:59 85° W 21:20:07 10° N
Cosmos 1346 Rocket 2.7 21:12:45 10° N 21:16:43 78° E 21:20:40 10° SSE
Cosmos 1605 Rocket 4.1 21:10:39 10° S 21:16:52 60° E 21:23:02 10° NNE
Cosmos 1633 4.2 21:13:28 10° SSW 21:16:55 38° WNW 21:20:21 10° N
Cosmos 1536 4.2 21:13:17 10° SSW 21:17:06 43° WNW 21:20:57 10° N
RESURS DK-1 4.4 21:18:48 10° NNE 21:21:18 15° NE 21:23:22 12° E
Meteor 2-16 Rocket 4.4 21:15:49 10° S 21:21:54 89° ESE 21:28:02 10° N
NOSS 2-1 (E) 3.8 21:22:17 10° SW 21:26:12 67° NW 21:30:48 10° NNE
Cosmos 2227 Rocket 2.2 21:21:34 10° NNW 21:27:16 76° ENE 21:32:24 13° SSE
YAOGAN 11 4.2 21:26:25 10° SSE 21:30:51 67° ENE 21:35:19 10° N
ALOS 3.4 21:28:59 10° S 21:33:27 44° W 21:37:56 10° NNW
Meteor 1-5 Rocket 4.4 21:28:12 10° SSW 21:33:30 73° W 21:38:59 10° N
FENGYUN 3A 4.5 21:28:57 10° S 21:34:09 51° W 21:39:23 10° NNW
Cosmos 1500 3.9 21:34:20 21° SE 21:36:08 32° E 21:39:32 10° NNE
BREEZE-M DEB (TANK) 4.4 21:21:32 10° SW 21:38:31 53° SSE 21:42:55 14° E
Cosmos 2082 3.7 21:34:14 10° NNW 21:39:54 89° ENE 21:44:33 15° SSE
Cosmos 1656 4.0 21:35:47 10° S 21:41:04 43° ESE 21:46:19 10° NE
Cosmos 2297 Rocket 2.2 21:37:27 10° NNW 21:43:08 74° ENE 21:47:09 20° SSE
Cosmos 2123 Rocket 4.3 21:38:06 10° NNW 21:44:15 68° W 21:50:21 10° S
USA 215 4.1 21:42:02 14° E 21:47:13 41° NNE 21:53:15 10° NW
Lacrosse 5 2.8 21:44:02 10° NW 21:48:47 38° NNE 21:51:36 21° E
H-2A R/B 2.2 21:49:23 29° SE 21:51:09 49° ENE 21:55:08 10° N
Cosmos 1340 4.1 21:48:20 10° NNE 21:51:21 22° ENE 21:51:29 22° ENE
deb Chang Zheng 4 3.8 21:50:15 10° NNE 21:54:35 48° E 21:57:05 23° SSE
Cosmos 1626 Rocket 3.6 21:50:28 10° N 21:54:53 78° W 21:58:22 16° S
SPOT 5 3.2 21:52:31 26° SE 21:55:04 49° ENE 21:59:47 10° N
Cosmos 1515 3.6 21:53:28 10° N 21:57:20 81° E 21:59:10 30° SSE
Cosmos 2298 Rocket 4.0 21:52:51 10° NNW 21:58:10 67° ENE 22:00:55 29° SE
Cosmos 1975 3.0 21:56:52 10° SSW 22:00:57 74° W 22:05:05 10° N
Cosmos 1602 Rocket 3.9 21:58:24 10° NNW 22:02:50 64° W 22:06:22 15° S
Cosmos 1459 Rocket 4.0 21:59:01 18° SSE 22:03:30 55° E 22:09:25 10° NNE
NOSS 3-4 (A) 4.5 21:57:58 10° NW 22:04:43 51° WSW 22:10:47 15° S
NOSS 3-4 (C) 4.5 21:58:04 10° NW 22:04:51 51° WSW 22:10:52 15° S
Nimbus 7 Rocket 4.4 22:00:19 10° NNE 22:06:21 63° ESE 22:12:20 10° S
Cosmos 1743 3.1 22:06:26 42° E 22:06:29 42° E 22:10:12 10° NNE
H-2A R/B 3.5 22:10:13 20° ENE 22:10:50 20° ENE 22:14:24 10° NNE
Cosmos 1461 3.9 22:08:13 10° NW 22:12:01 38° WSW 22:13:43 25° SSW
YAOGAN 6 2.8 22:12:12 50° E 22:12:23 50° ENE 22:15:59 10° N
Cosmos 1066 Rocket 4.2 22:07:02 10° N 22:12:42 87° E 22:16:06 26° S
Lacrosse 5 rocket 1.1 22:09:07 10° NW 22:12:48 65° SW 22:13:22 54° S
Envisat 3.2 22:11:14 21° S 22:14:39 71° WSW 22:19:45 10° NNW
Tiangong 1 1.2 22:14:05 10° W 22:16:48 66° W 22:16:48 66° W
MetOp-A 4.1 22:15:53 35° SSE 22:18:11 73° ENE 22:23:33 10° N
Cosmos 1937 Rocket 3.5 22:14:07 10° NNW 22:19:23 67° ENE 22:21:02 43° SE
Cosmos 1842 4.5 22:19:58 10° NNE 22:22:45 28° NE 22:22:45 28° NE
Cosmos 1697 Rocket 2.6 22:17:59 10° SSW 22:23:37 72° ESE 22:29:15 10° NNE
Cosmos 2058 Rocket 4.1 22:25:44 31° ENE 22:25:44 31° ENE 22:28:54 10° NNE
Cosmos 1802 Rocket 4.0 22:20:59 24° S 22:25:02 71° E 22:31:27 10° NNE
OTV 4 3.0 22:23:05 10° WSW 22:23:53 14° SW 22:23:53 14° SW
Cosmos 2150 Rocket 3.9 22:20:14 10° NNW 22:25:25 82° WSW 22:27:17 40° S
PSLV R/B 4.1 22:26:51 41° N 22:26:51 41° N 22:29:00 10° N
SL-16 R/B 4.3 22:29:58 11° ENE 22:29:58 11° ENE 22:30:15 10° ENE
DELTA 2 R/B (1) 3.8 22:23:24 10° W 22:28:47 51° SSW 22:29:48 45° SSE
SPOT 1/Viking Rocket 3.6 22:28:06 47° ESE 22:29:19 60° ENE 22:34:28 10° N
CZ-4 SHROUD 4.3 22:31:05 37° N 22:31:05 37° N 22:33:08 10° N
Cosmos 1939 Rocket 4.3 22:28:30 20° SSW 22:30:51 36° W 22:34:43 10° NNW
NOAA 11 4.3 22:29:44 46° ESE 22:31:05 59° ENE 22:36:28 10° N
ASTEX 1 3.3 22:26:45 10° N 22:31:47 73° E 22:33:04 50° SSE
Cosmos 2084 3.2 22:29:00 10° NW 22:33:04 81° SW 22:33:22 74° S
SL-08 RB Rocket 4.0 22:35:12 50° E 22:35:22 50° ENE 22:39:53 10° N
Cosmos 990 Rocket 3.9 22:31:36 10° NNW 22:36:53 71° ENE 22:37:48 57° SE
Cosmos 1606 Rocket 3.4 22:38:14 74° ESE 22:38:17 75° E 22:42:42 10° NNE
Terra 3.0 22:40:15 28° ENE 22:40:15 28° ENE 22:44:00 10° N
CZ-4B R/B 3.5 22:39:56 10° NNE 22:44:02 52° ENE 22:44:02 52° ENE
Cosmos 1980 Rocket 2.1 22:44:07 53° SSE 22:45:15 66° ESE 22:50:55 10° NNE
Cosmos 2016 Rocket 3.8 22:43:28 37° S 22:46:07 85° E 22:52:19 10° N
ARGOS 3.0 22:49:32 63° SSE 22:50:27 85° ENE 22:55:52 10° NNW
Cosmos 1898 Rocket 4.4 22:48:08 10° NNW 22:53:11 44° WSW 22:54:53 33° SSW
Meteor 1-21 4.3 22:49:33 10° NNW 22:55:19 74° W 22:56:53 49° SSW
Cosmos 1125 Rocket 4.0 22:54:26 10° N 22:59:15 46° ENE 22:59:15 46° ENE
RESURS DK-1 2.9 22:55:40 10° NNW 22:59:18 55° W 22:59:18 55° W
Cosmos 1666 4.2 23:02:39 31° N 23:02:39 31° N 23:04:44 10° N
Cosmos 1726 Rocket 3.8 23:03:16 67° NW 23:03:16 67° NW 23:07:23 10° N
Cosmos 1763 Rocket 3.3 23:04:53 86° NE 23:04:53 86° NE 23:09:52 10° NNE
CZ-4C R/B 4.3 23:07:43 47° NNE 23:07:43 47° NNE 23:11:08 10° N
SL-19 R/B 4.3 23:01:38 10° N 23:07:10 71° WNW 23:08:46 46° SW
Tsikada Rocket 3.9 23:05:05 10° N 23:11:33 89° E 23:12:34 66° S
Cosmos 1864 Rocket 4.3 23:12:32 66° S 23:13:29 90° W 23:19:38 10° N
Cosmos 2263 Rocket 3.2 23:09:48 10° N 23:14:41 32° NE 23:14:41 32° NE
Cosmos 2322 Rocket 3.5 23:18:34 28° NE 23:18:34 28° NE 23:21:23 10° NE
Cosmos 967 Rocket 4.3 23:11:20 10° NW 23:17:42 79° WSW 23:18:16 73° S
Cosmos 2360 4.1 23:19:44 83° NE 23:19:44 83° NE 23:25:17 10° NNE
Cosmos 841 Rocket 3.6 23:24:39 71° WNW 23:24:39 71° WNW 23:29:48 10° NNE
Meteor 2-9 Rocket 4.2 23:24:45 69° WSW 23:25:04 71° W 23:30:31 10° N
Milstar 3 Cent rocket 4.4 23:11:42 10° WSW 23:25:23 33° SSW 23:26:27 33° SSW
Cosmos 2297 Rocket 4.4 23:23:10 10° WNW 23:26:28 16° W 23:28:59 12° SW
Cosmos 2227 4.4 23:22:24 10° NNW 23:28:06 63° WSW 23:28:06 63° WSW
USA 215 3.1 23:29:23 73° S 23:29:55 78° SW 23:36:30 10° NW
Lacrosse 5 2.8 23:26:59 10° WNW 23:30:48 41° W 23:30:48 41° W
Cosmos 2346 Rocket 4.4 23:40:48 10° N 23:46:38 79° N 23:46:38 79° N
H-2A R/B 2.8 23:50:51 45° WNW 23:50:51 45° WNW 23:54:44 10° NNW
